WB4FAY-4 Weather Reports


time (UTC)temp
C
wind
direction
speed
KPH
gust
KPH
rain 1hr
cm
rain 24hr
cm
rain mn
cm
humidity
%
barometer
mb
20260510214517 27 237 1.6 3.2 0.00 0.00 0.00 59 1017.0
20260510214017 27 223 3.2 3.2 0.00 0.00 0.00 61 1017.0
20260510213517 26 0 1.6 0.0 0.00 0.00 0.00 60 1017.0
20260510213018 26 301 0.0 3.2 0.00 0.00 0.00 63 1017.0
20260510212517 26 274 0.0 4.8 0.00 0.00 0.00 63 1017.0
20260510212017 25 291 1.6 3.2 0.00 0.00 0.00 68 1017.0
20260510211517 25 0 0.0 0.0 0.00 0.00 0.00 69 1017.0
20260510211017 25 294 0.0 1.6 0.00 0.00 0.00 68 1017.1
20260510210518 25 295 0.0 4.8 0.00 0.00 0.00 67 1017.0
20260510210022 25 263 0.0 3.2 0.00 0.00 0.00 67 1017.1
20260510205517 25 234 0.0 3.2 0.00 0.00 0.00 66 1017.0
20260510205017 25 291 0.0 1.6 0.00 0.00 0.00 67 1017.1
20260510204517 26 175 1.6 3.2 0.00 0.00 0.00 64 1017.0
20260510204018 26 78 0.0 3.2 0.00 0.00 0.00 63 1017.1
20260510203517 26 80 0.0 8.0 0.00 0.00 0.00 61 1017.2
20260510203017 26 240 0.0 4.8 0.00 0.00 0.00 61 1017.1
20260510202517 26 258 1.6 6.4 0.00 0.00 0.00 62 1017.2
20260510202017 26 316 1.6 6.4 0.00 0.00 0.00 63 1017.2
20260510201517 26 323 0.0 3.2 0.00 0.00 0.00 64 1017.2
20260510201016 26 318 3.2 4.8 0.00 0.00 0.00 61 1017.2
20260510200517 26 222 3.2 6.4 0.00 0.00 0.00 61 1017.3
20260510200017 26 110 1.6 6.4 0.00 0.00 0.00 61 1017.2
20260510195517 25 93 0.0 6.4 0.00 0.00 0.00 62 1017.3
20260510195017 25 106 3.2 8.0 0.00 0.00 0.00 62 1017.3
20260510194517 25 89 4.8 8.0 0.00 0.00 0.00 62 1017.3
20260510194018 25 56 3.2 6.4 0.00 0.00 0.00 64 1017.4
20260510193517 25 167 1.6 4.8 0.00 0.00 0.00 66 1017.4
20260510193016 25 264 1.6 4.8 0.00 0.00 0.00 66 1017.5
20260510192517 25 282 4.8 9.7 0.00 0.00 0.00 66 1017.5
20260510192018 25 230 8.0 9.7 0.00 0.00 0.00 66 1017.5
20260510191517 25 219 0.0 6.4 0.00 0.00 0.00 66 1017.5
20260510191017 25 275 4.8 3.2 0.00 0.00 0.00 67 1017.5
20260510190517 25 112 0.0 3.2 0.00 0.00 0.00 66 1017.5
20260510190017 25 100 0.0 4.8 0.00 0.00 0.00 67 1017.7
20260510185517 24 76 1.6 6.4 0.00 0.00 0.00 67 1017.8
20260510185017 24 114 3.2 8.0 0.00 0.00 0.00 68 1017.9
20260510184517 24 88 1.6 9.7 0.00 0.00 0.00 69 1017.9
20260510184017 24 203 1.6 8.0 0.00 0.00 0.00 70 1017.9
20260510183517 24 199 0.0 8.0 0.00 0.00 0.00 67 1018.0
20260510183017 24 232 0.0 9.7 0.00 0.00 0.00 68 1017.9
20260510182517 24 199 0.0 6.4 0.00 0.00 0.00 69 1017.9
20260510182017 24 80 3.2 8.0 0.00 0.00 0.00 69 1018.0
20260510181517 23 69 0.0 6.4 0.00 0.00 0.00 70 1018.0
20260510181017 23 158 1.6 8.0 0.00 0.00 0.00 71 1018.0
20260510180517 23 141 0.0 6.4 0.00 0.00 0.00 71 1018.1
20260510180017 23 56 4.8 6.4 0.00 0.00 0.00 73 1018.1
20260510175518 23 268 3.2 6.4 0.00 0.00 0.00 74 1018.2
20260510175017 22 196 4.8 8.0 0.00 0.00 0.00 74 1018.3
20260510174517 22 186 3.2 8.0 0.00 0.00 0.00 75 1018.4
20260510174017 22 233 1.6 9.7 0.00 0.00 0.00 76 1018.5
20260510173522 22 208 4.8 9.7 0.00 0.00 0.00 77 1018.6
20260510173017 22 72 0.0 6.4 0.00 0.00 0.00 78 1018.7
20260510172517 22 86 1.6 9.7 0.00 0.00 0.00 77 1018.7
20260510172016 22 24 4.8 4.8 0.00 0.00 0.00 79 1018.7
20260510171517 22 209 1.6 6.4 0.00 0.00 0.00 79 1018.8
20260510171018 22 64 1.6 3.2 0.00 0.00 0.00 79 1018.9
20260510170517 22 215 0.0 1.6 0.00 0.00 0.00 79 1018.9
20260510170017 22 0 0.0 0.0 0.00 0.00 0.00 78 1019.0
20260510165517 22 0 0.0 0.0 0.00 0.00 0.00 78 1019.1
20260510165017 22 0 0.0 0.0 0.00 0.00 0.00 80 1019.1
20260510164517 22 0 0.0 0.0 0.00 0.00 0.00 80 1019.1
20260510164017 22 0 0.0 0.0 0.00 0.00 0.00 81 1019.1
20260510163517 21 0 0.0 0.0 0.00 0.00 0.00 81 1019.0
20260510163017 21 0 0.0 0.0 0.00 0.00 0.00 81 1019.0
20260510162517 21 213 0.0 1.6 0.00 0.00 0.00 81 1018.9
20260510162017 21 90 0.0 3.2 0.00 0.00 0.00 82 1018.9
20260510161517 21 0 0.0 0.0 0.00 0.00 0.00 83 1018.9
20260510161017 21 90 0.0 3.2 0.00 0.00 0.00 83 1018.9
20260510160517 21 90 3.2 6.4 0.00 0.00 0.00 83 1018.9
20260510160017 21 90 4.8 4.8 0.00 0.00 0.00 84 1018.9
20260510155517 21 92 1.6 4.8 0.00 0.00 0.00 85 1019.0
20260510155017 21 92 3.2 8.0 0.00 0.00 0.00 85 1019.0
20260510154517 21 93 4.8 3.2 0.00 0.00 0.00 86 1018.9
20260510154017 20 90 0.0 6.4 0.00 0.00 0.00 87 1019.0
20260510153517 20 95 1.6 4.8 0.00 0.00 0.00 88 1019.0
20260510153017 20 119 3.2 1.6 0.00 0.00 0.00 88 1019.0
20260510152518 20 54 0.0 3.2 0.00 0.00 0.00 89 1019.0
20260510152017 20 44 1.6 3.2 0.00 0.00 0.00 90 1019.0
20260510151517 20 13 0.0 0.0 0.00 0.00 0.00 92 1018.9
20260510151017 20 337 0.0 4.8 0.00 0.00 0.00 93 1018.9
20260510150517 20 357 1.6 4.8 0.00 0.00 0.00 94 1019.0
20260510150017 20 62 1.6 3.2 0.00 0.00 0.00 95 1019.0
20260510145517 19 65 0.0 3.2 0.00 0.00 0.00 95 1019.0
20260510145017 19 72 0.0 3.2 0.00 0.00 0.00 96 1018.9
20260510144517 19 97 1.6 4.8 0.00 0.00 0.00 96 1019.0
20260510144017 19 104 0.0 4.8 0.00 0.00 0.00 96 1019.0
20260510143517 18 89 3.2 4.8 0.00 0.00 0.00 96 1019.0
20260510143017 18 0 0.0 0.0 0.00 0.00 0.00 96 1018.9
20260510142518 18 0 0.0 0.0 0.00 0.00 0.00 96 1019.0
20260510142017 18 97 0.0 4.8 0.00 0.00 0.00 97 1019.1
20260510141517 18 79 1.6 6.4 0.00 0.00 0.00 97 1019.1
20260510141018 18 75 0.0 1.6 0.00 0.00 0.00 97 1019.1
20260510140517 18 93 1.6 8.0 0.00 0.00 0.00 97 1019.0
20260510140017 18 89 4.8 6.4 0.00 0.00 0.00 97 1019.0
20260510135517 18 0 0.0 0.0 0.00 0.00 0.00 97 1019.0
20260510135017 18 0 0.0 0.0 0.00 0.00 0.00 97 1018.9
20260510134517 18 59 0.0 3.2 0.00 0.00 0.00 97 1018.9
20260510134017 18 28 0.0 1.6 0.00 0.00 0.00 97 1018.9
20260510133517 18 0 0.0 0.0 0.00 0.00 0.00 97 1018.9
20260510133017 18 89 0.0 1.6 0.00 0.00 0.00 97 1018.9
20260510132517 18 80 1.6 3.2 0.00 0.00 0.00 97 1018.9
20260510132017 18 93 3.2 4.8 0.00 0.00 0.00 97 1018.8
20260510131517 18 0 0.0 0.0 0.00 0.00 0.00 97 1018.7
20260510131017 18 23 0.0 0.0 0.00 0.00 0.00 97 1018.6
20260510130518 18 0 0.0 0.0 0.00 0.00 0.00 97 1018.5
20260510130017 18 0 0.0 0.0 0.00 0.00 0.00 97 1018.4
20260510125517 18 0 0.0 0.0 0.00 0.00 0.00 97 1018.5
20260510125017 18 130 0.0 1.6 0.00 0.00 0.00 97 1018.6
20260510124517 18 0 0.0 0.0 0.00 0.00 0.00 97 1018.5
20260510124017 18 90 0.0 3.2 0.00 0.00 0.00 97 1018.4
20260510123517 18 0 3.2 0.0 0.00 0.00 0.00 97 1018.3
20260510123017 18 0 0.0 0.0 0.00 0.00 0.00 97 1018.2
20260510122517 18 0 0.0 0.0 0.00 0.00 0.00 97 1018.2
20260510122018 18 0 0.0 0.0 0.00 0.00 0.00 97 1018.2
20260510121517 18 140 0.0 1.6 0.00 0.00 0.00 97 1018.2
20260510121017 18 0 0.0 0.0 0.00 0.00 0.00 97 1018.0
20260510120517 18 0 0.0 0.0 0.00 0.00 0.00 97 1017.8
20260510120017 18 92 0.0 1.6 0.00 0.00 0.00 97 1017.8
20260510115517 18 0 0.0 0.0 0.00 0.00 0.00 97 1017.7
20260510115017 18 100 0.0 4.8 0.00 0.00 0.00 97 1017.6
20260510114517 18 95 4.8 3.2 0.00 0.00 0.00 97 1017.5
20260510114017 18 0 0.0 0.0 0.00 0.00 0.00 97 1017.4
20260510113517 18 64 0.0 3.2 0.00 0.00 0.00 97 1017.2
20260510113017 18 0 0.0 0.0 0.00 0.00 0.00 97 1017.0
20260510112518 18 0 0.0 0.0 0.00 0.00 0.00 97 1016.9
20260510112018 18 0 0.0 0.0 0.00 0.00 0.00 97 1016.8
20260510111517 18 0 0.0 0.0 0.00 0.00 0.00 97 1016.8
20260510111017 18 0 0.0 0.0 0.00 0.00 0.00 97 1016.6
20260510110517 18 0 0.0 0.0 0.00 0.00 0.00 97 1016.5
20260510110017 18 0 0.0 0.0 0.00 0.00 0.00 97 1016.4
20260510105517 18 0 0.0 0.0 0.00 0.00 0.00 97 1016.4
20260510105017 18 0 0.0 0.0 0.00 0.00 0.00 97 1016.4
20260510104517 18 0 0.0 0.0 0.00 0.00 0.00 97 1016.4
20260510104017 18 0 0.0 0.0 0.00 0.00 0.00 97 1016.3
20260510103516 18 0 0.0 0.0 0.00 0.00 0.00 97 1016.2
20260510103017 18 0 0.0 0.0 0.00 0.00 0.00 97 1016.1
20260510102517 18 0 0.0 0.0 0.00 0.00 0.00 97 1016.1
20260510102017 18 0 0.0 0.0 0.00 0.00 0.00 97 1016.0
20260510101517 18 0 0.0 0.0 0.00 0.00 0.00 97 1016.0
20260510101017 18 0 0.0 0.0 0.00 0.00 0.00 97 1015.9
20260510100517 18 0 0.0 0.0 0.00 0.00 0.00 97 1015.9
20260510100017 17 0 0.0 0.0 0.00 0.00 0.00 97 1015.8
20260510095517 18 0 0.0 0.0 0.00 0.00 0.00 97 1015.7
20260510095017 17 0 0.0 0.0 0.00 0.00 0.00 97 1015.7
20260510094517 17 0 0.0 0.0 0.00 0.00 0.00 97 1015.6
20260510094017 17 0 0.0 0.0 0.00 0.00 0.00 97 1015.5
20260510093517 17 0 0.0 0.0 0.00 0.00 0.00 97 1015.4
20260510093017 17 0 0.0 0.0 0.00 0.00 0.00 97 1015.4
20260510092517 17 0 0.0 0.0 0.00 0.00 0.00 97 1015.4
20260510092017 17 0 0.0 0.0 0.00 0.00 0.00 97 1015.3
20260510091517 17 0 0.0 0.0 0.00 0.00 0.00 97 1015.3
20260510091017 17 0 0.0 0.0 0.00 0.00 0.00 97 1015.1
20260510090517 17 83 0.0 3.2 0.00 0.00 0.00 97 1015.1
20260510090017 17 0 0.0 0.0 0.00 0.00 0.00 97 1015.1
20260510085517 17 0 0.0 0.0 0.00 0.00 0.00 97 1015.1
20260510085017 17 0 0.0 0.0 0.00 0.00 0.00 97 1015.0
20260510084517 17 0 0.0 0.0 0.00 0.00 0.00 97 1015.0
20260510084017 17 0 0.0 0.0 0.00 0.00 0.00 97 1014.8
20260510083518 17 0 0.0 0.0 0.00 0.00 0.00 97 1014.8
20260510083017 17 0 0.0 0.0 0.00 0.00 0.00 97 1014.8
20260510082517 17 0 0.0 0.0 0.00 0.00 0.00 97 1014.7
20260510082018 17 0 0.0 0.0 0.00 0.00 0.00 97 1014.8
20260510081517 17 0 0.0 0.0 0.00 0.00 0.00 97 1014.8
20260510081017 17 0 0.0 0.0 0.00 0.00 0.00 97 1014.8
20260510080517 17 0 0.0 0.0 0.00 0.00 0.00 97 1014.8
20260510080017 17 0 0.0 0.0 0.00 0.00 0.00 97 1014.9
20260510075517 17 0 0.0 0.0 0.00 0.00 0.00 97 1014.8
20260510075017 17 0 0.0 0.0 0.00 0.00 0.00 96 1014.7
20260510074517 17 0 0.0 0.0 0.00 0.00 0.00 96 1014.7
20260510074017 17 0 0.0 0.0 0.00 0.00 0.00 96 1014.7
20260510073517 17 0 0.0 0.0 0.00 0.00 0.00 96 1014.7
20260510073017 17 0 0.0 0.0 0.00 0.00 0.00 96 1014.7
20260510072518 17 0 0.0 0.0 0.00 0.00 0.00 96 1014.7
20260510072017 17 0 0.0 0.0 0.00 0.00 0.00 96 1014.7
20260510071517 17 0 0.0 0.0 0.00 0.00 0.00 96 1014.8
20260510071017 17 0 0.0 0.0 0.00 0.00 0.00 96 1014.8
20260510070517 17 0 0.0 0.0 0.00 0.00 0.00 96 1014.8
20260510070017 17 0 0.0 0.0 0.00 0.00 0.00 96 1014.8
20260510065517 17 0 0.0 0.0 0.00 0.00 0.00 96 1014.9
20260510065017 17 0 0.0 0.0 0.00 0.00 0.00 96 1015.0
20260510064517 17 0 0.0 0.0 0.00 0.00 0.00 96 1015.0
20260510064017 17 0 0.0 0.0 0.00 0.00 0.00 96 1015.0
20260510063517 17 0 0.0 0.0 0.00 0.00 0.00 96 1015.0
20260510063017 17 0 0.0 0.0 0.00 0.00 0.00 96 1015.1
20260510062517 17 0 0.0 0.0 0.00 0.00 0.00 96 1015.2
20260510062017 17 0 0.0 0.0 0.00 0.00 0.00 96 1015.2
20260510061517 17 0 0.0 0.0 0.00 0.00 0.00 96 1015.1
20260510061017 17 0 0.0 0.0 0.00 0.00 0.00 96 1015.2
20260510060517 17 0 0.0 0.0 0.00 0.00 0.00 96 1015.2
20260510060017 17 0 0.0 0.0 0.00 0.00 0.00 96 1015.1
20260510055517 17 0 0.0 0.0 0.00 0.00 0.00 96 1015.0
20260510055017 17 0 0.0 0.0 0.00 0.00 0.00 96 1015.0
20260510054517 17 0 0.0 0.0 0.00 0.00 0.00 96 1015.1
20260510054017 17 0 0.0 0.0 0.00 0.00 0.00 96 1015.2
20260510053517 17 0 0.0 0.0 0.00 0.00 0.00 96 1015.2
20260510053017 17 0 0.0 0.0 0.00 0.00 0.00 96 1015.2
20260510052517 17 0 0.0 0.0 0.00 0.00 0.00 96 1015.3
20260510052017 18 0 0.0 0.0 0.00 0.00 0.00 96 1015.3
20260510051517 18 0 0.0 0.0 0.00 0.00 0.00 96 1015.3
20260510051017 18 0 0.0 0.0 0.00 0.00 0.00 96 1015.4
20260510050517 18 0 0.0 0.0 0.00 0.00 0.00 96 1015.4
20260510050017 18 0 0.0 0.0 0.00 0.00 0.00 95 1015.3
20260510045518 18 0 0.0 0.0 0.00 0.00 0.00 95 1015.3
20260510045017 18 0 0.0 0.0 0.00 0.00 0.00 95 1015.3
20260510044517 18 0 0.0 0.0 0.00 0.00 0.00 95 1015.3
20260510044017 18 0 0.0 0.0 0.00 0.00 0.00 95 1015.3
20260510043517 18 0 0.0 0.0 0.00 0.00 0.00 95 1015.3
20260510043018 18 0 0.0 0.0 0.00 0.00 0.00 95 1015.3
20260510042517 18 0 0.0 0.0 0.00 0.00 0.00 95 1015.3
20260510042017 18 0 0.0 0.0 0.00 0.00 0.00 95 1015.4
20260510041517 18 0 0.0 0.0 0.00 0.00 0.00 95 1015.4
20260510041017 18 0 0.0 0.0 0.00 0.00 0.00 95 1015.4
20260510040517 18 0 0.0 0.0 0.00 0.00 0.00 95 1015.4
20260510040017 18 0 0.0 0.0 0.00 0.00 0.00 95 1015.4
20260510035517 18 0 0.0 0.0 0.00 0.00 0.00 94 1015.3
20260510035017 18 0 0.0 0.0 0.00 0.00 0.00 94 1015.3
20260510034517 18 0 0.0 0.0 0.00 0.00 0.00 94 1015.4
20260510034017 18 0 0.0 0.0 0.00 0.00 0.00 94 1015.3
20260510033517 18 0 0.0 0.0 0.00 0.00 0.00 94 1015.3
20260510033017 18 0 0.0 0.0 0.00 0.00 0.00 94 1015.5
20260510032518 18 0 0.0 0.0 0.00 0.00 0.00 93 1015.5
20260510032017 19 0 0.0 0.0 0.00 0.00 0.00 93 1015.5
20260510031517 19 0 0.0 0.0 0.00 0.00 0.00 93 1015.4
20260510031017 19 0 0.0 0.0 0.00 0.00 0.00 93 1015.4
20260510030518 19 0 0.0 0.0 0.00 0.00 0.00 92 1015.3
20260510030017 19 0 0.0 0.0 0.00 0.00 0.00 92 1015.2
20260510025517 19 0 0.0 0.0 0.00 0.00 0.00 92 1015.3
20260510025017 19 0 0.0 0.0 0.00 0.00 0.00 92 1015.3
20260510024516 19 0 0.0 0.0 0.00 0.00 0.00 92 1015.3
20260510024017 19 0 0.0 0.0 0.00 0.00 0.00 91 1015.2
20260510023517 20 0 0.0 0.0 0.00 0.00 0.00 91 1015.1
20260510023017 20 0 0.0 0.0 0.00 0.00 0.00 90 1015.1
20260510022517 20 0 0.0 0.0 0.00 0.00 0.00 90 1015.0
20260510022017 20 0 0.0 0.0 0.00 0.00 0.00 90 1015.0
20260510021517 20 0 0.0 0.0 0.00 0.00 0.00 90 1014.9
20260510021023 20 0 0.0 0.0 0.00 0.00 0.00 89 1014.8
20260510020517 20 0 0.0 0.0 0.00 0.00 0.00 89 1014.7
20260510020017 20 0 0.0 0.0 0.00 0.00 0.00 89 1014.6
20260510015517 20 0 0.0 0.0 0.00 0.00 0.00 89 1014.6
20260510015017 20 0 0.0 0.0 0.00 0.00 0.00 88 1014.5
20260510014517 20 0 0.0 0.0 0.00 0.00 0.00 88 1014.4
20260510014016 20 0 0.0 0.0 0.00 0.00 0.00 88 1014.3
20260510013517 20 0 0.0 0.0 0.00 0.00 0.00 87 1014.2
20260510013017 20 0 0.0 0.0 0.00 0.00 0.00 87 1014.1
20260510012522 20 0 0.0 0.0 0.00 0.00 0.00 87 1014.0
20260510012017 20 0 0.0 0.0 0.00 0.00 0.00 86 1013.9
20260510011517 20 0 0.0 0.0 0.00 0.00 0.00 86 1013.9
20260510011018 20 0 0.0 0.0 0.00 0.00 0.00 86 1013.7
20260510010518 20 0 0.0 0.0 0.00 0.00 0.00 85 1013.7
20260510010017 20 0 0.0 0.0 0.00 0.00 0.00 85 1013.7
20260510005522 20 0 0.0 0.0 0.00 0.00 0.00 85 1013.5
20260510005018 20 0 0.0 0.0 0.00 0.00 0.00 85 1013.5
20260510004517 21 0 0.0 0.0 0.00 0.00 0.00 84 1013.5
20260510004018 21 0 0.0 0.0 0.00 0.00 0.00 84 1013.5
20260510003517 21 0 0.0 0.0 0.00 0.00 0.00 84 1013.5
20260510003018 21 0 0.0 0.0 0.00 0.00 0.00 83 1013.5
20260510002517 21 0 0.0 0.0 0.00 0.00 0.00 83 1013.5
20260510002017 21 0 0.0 0.0 0.00 0.00 0.00 82 1013.4
20260510001517 21 0 0.0 0.0 0.00 0.00 0.00 82 1013.3
20260510001017 21 0 0.0 0.0 0.00 0.00 0.00 82 1013.4
20260510000517 21 0 0.0 0.0 0.00 0.00 0.00 81 1013.2
20260510000017 21 0 0.0 0.0 0.00 0.00 0.00 80 1013.1
20260509235517 21 0 0.0 0.0 0.00 0.00 0.00 80 1013.0
20260509235018 21 0 0.0 0.0 0.00 0.00 0.00 79 1012.9
20260509234517 21 0 0.0 0.0 0.00 0.00 0.00 79 1012.9
20260509234018 21 0 0.0 0.0 0.00 0.00 0.00 79 1012.8
20260509233517 21 0 0.0 0.0 0.00 0.00 0.00 78 1012.9
20260509233017 21 0 0.0 0.0 0.00 0.00 0.00 78 1012.7
20260509232518 22 0 0.0 0.0 0.00 0.00 0.00 78 1012.7
20260509232017 22 0 0.0 0.0 0.00 0.00 0.00 78 1012.7
20260509231517 22 0 0.0 0.0 0.00 0.00 0.00 78 1012.7
20260509231017 22 0 0.0 0.0 0.00 0.00 0.00 78 1012.8
20260509230517 22 0 0.0 0.0 0.00 0.00 0.00 78 1012.6
20260509230017 22 0 0.0 0.0 0.00 0.00 0.00 77 1012.6
20260509225518 22 0 0.0 0.0 0.00 0.00 0.00 77 1012.5
20260509225017 22 0 0.0 0.0 0.00 0.00 0.00 77 1012.5
20260509224518 22 0 0.0 0.0 0.00 0.00 0.00 76 1012.4
20260509224017 22 0 0.0 0.0 0.00 0.00 0.00 76 1012.4
20260509223517 22 0 0.0 0.0 0.00 0.00 0.00 75 1012.4
20260509223017 22 0 0.0 0.0 0.00 0.00 0.00 75 1012.4
20260509222517 22 0 0.0 0.0 0.00 0.00 0.00 75 1012.2
20260509222017 22 0 0.0 0.0 0.00 0.00 0.00 74 1012.3
20260509221517 22 0 0.0 0.0 0.00 0.00 0.00 74 1012.2
20260509221018 22 0 0.0 0.0 0.00 0.00 0.00 74 1012.1
20260509220517 23 189 0.0 3.2 0.00 0.00 0.00 73 1012.3
20260509220017 23 0 0.0 0.0 0.00 0.00 0.00 74 1012.4
20260509215518 23 82 0.0 3.2 0.00 0.00 0.00 72 1012.1
20260509215017 23 92 0.0 4.8 0.00 0.00 0.00 72 1012.1